[Date Prev][Date Next][Thread Prev][Thread Next] - [Date Index][Thread Index][Author Index]

2 Line ISS Keps 10-6



ISS 
1 25544U 98067A   04280.43108236  .00016949  00000-0  14967-3 0  8472
2 25544  51.6348 118.0582 0009557 191.3563 228.0719 15.68762807335794
----
Via the sarex mailing list at AMSAT.ORG courtesy of AMSAT-NA.
To unsubscribe, send "unsubscribe sarex" to Majordomo@amsat.org



AMSAT Top AMSAT Home